Location: Boston
(42.3580°N, 71.0600°W)
Time: 13:41:10
(UTC-04:00)

ISS - Visible Passes

Search period start: 13 May 2021 00:00
Search period end: 23 May 2021 00:00
Orbit: 417 x 422 km, 51.6° (Epoch: 13 May)

Date Brightness Start Highest point End Pass type
(mag) Time Alt. Az. Time Alt. Az. Time Alt. Az.
13 May -0.7 00:43:46 16° NNE 00:43:46 16° NNE 00:44:55 10° NE visible
13 May -0.8 02:17:38 10° NW 02:20:03 18° N 02:22:28 10° NE visible
13 May -2.5 03:54:13 10° NW 03:57:29 44° NNE 04:00:45 10° ESE visible
13 May -0.6 23:57:17 11° NE 23:57:17 11° NE 23:57:31 10° NE visible
14 May -0.8 01:30:10 10° NW 01:32:22 17° N 01:34:41 10° NE visible
14 May -1.8 03:06:52 10° NW 03:09:56 32° NNE 03:13:01 10° E visible
14 May -3.4 04:43:36 10° WNW 04:46:50 42° SW 04:50:02 10° SSE visible
14 May -3.5 21:26:59 10° SW 21:30:12 45° SE 21:33:27 10° ENE visible
14 May -1.8 23:04:05 10° W 23:07:07 30° NNW 23:10:10 10° NE visible
15 May -0.7 00:42:25 10° NW 00:44:42 17° N 00:46:59 10° NE visible
15 May -1.4 02:19:30 10° NW 02:22:21 25° NNE 02:25:12 10° ENE visible
15 May -3.9 03:56:04 10° WNW 03:59:27 73° SW 04:02:48 10° SE visible
15 May -2.8 20:40:00 10° SSW 20:42:52 27° SE 20:45:46 10° ENE visible
15 May -2.5 22:16:21 10° W 22:19:34 42° NNW 22:22:48 10° NE visible
15 May -0.8 23:54:38 10° NW 23:57:01 18° N 23:59:25 10° NE visible
16 May -1.1 01:32:07 10° NW 01:34:44 20° NNE 01:37:21 10° ENE visible
16 May -3.5 03:08:38 10° NW 03:12:00 69° NNE 03:15:22 10° ESE visible
16 May -2.0 04:46:24 10° W 04:48:27 15° SW 04:50:29 10° S visible
16 May -3.3 21:28:44 10° WSW 21:32:04 64° NNW 21:35:25 10° NE visible
16 May -1.0 23:06:47 10° WNW 23:09:22 20° NNW 23:11:56 10° NE visible
17 May -0.9 00:44:39 10° NW 00:47:04 18° N 00:48:59 12° NE visible
17 May -1.5 02:21:15 10° NW 02:26:39 19° E 02:27:46 10° ESE visible
17 May -2.7 04:00:13 22° WSW 04:01:10 25° SW 04:03:59 10° SSE visible
17 May -3.8 20:41:16 10° SW 20:44:37 79° SE 20:47:59 10° ENE visible
17 May -1.3 22:18:56 10° WNW 22:21:43 24° NNW 22:24:32 10° NE visible
17 May -0.8 23:57:06 10° NW 23:59:24 17° N 00:01:35 10° NE visible
18 May -0.9 01:33:53 10° NW 01:34:29 14° NW 01:34:29 14° NW visible
18 May -1.7 21:31:05 10° W 21:34:07 30° NNW 21:37:09 10° NE visible
18 May -0.8 23:09:25 10° NW 23:11:42 17° N 23:13:59 10° NE visible
19 May -1.1 00:46:31 10° NW 00:48:09 20° NNW 00:48:09 20° NNW visible
19 May -2.3 20:43:21 10° W 20:46:33 42° NNW 20:49:47 10° NE visible
19 May -0.8 22:21:39 10° NW 22:24:01 18° N 22:26:24 10° NE visible
19 May -1.2 23:59:06 10° NW 00:01:43 20° NNE 00:02:00 20° NNE visible
20 May -1.0 21:33:47 10° WNW 21:36:21 20° NNW 21:38:55 10° NE visible
20 May -1.0 23:11:38 10° NW 23:14:04 18° N 23:15:56 12° NE visible
21 May -0.9 00:48:13 10° NW 00:48:52 14° NW 00:48:52 14° NW visible
21 May -1.3 20:45:55 10° WNW 20:48:42 24° NNW 20:51:30 10° NE visible
21 May -0.9 22:24:05 10° NW 22:26:22 17° N 22:28:40 10° NE visible
22 May -1.5 00:00:50 10° NW 00:02:50 25° NNW 00:02:50 25° NNW visible
22 May -0.9 21:36:23 10° NW 21:38:40 17° N 21:40:57 10° NE visible
22 May -1.7 23:13:28 10° NW 23:16:19 25° NNE 23:16:50 24° NE visible
